| time (UTC) | temp F | wind direction | speed knots | gust knots | rain 1hr in | rain 24hr in | rain mn in | humidity % | barometer mb |
| 20260503184525 | 67 | 317 | 5.2 | 11.3 | 0.00 | 0.00 | 0.00 | 33 | 1003.1 |
| 20260503183009 | 66 | 282 | 6.1 | 13.9 | 0.00 | 0.00 | 0.00 | 35 | 1003.3 |
| 20260503181511 | 67 | 349 | 6.1 | 12.2 | 0.00 | 0.00 | 0.00 | 34 | 1003.2 |
| 20260503180024 | 67 | 295 | 7.0 | 11.3 | 0.00 | 0.00 | 0.00 | 33 | 1003.3 |
| 20260503174506 | 67 | 309 | 6.1 | 12.2 | 0.00 | 0.00 | 0.00 | 36 | 1003.4 |
| 20260503173006 | 67 | 351 | 3.5 | 7.8 | 0.00 | 0.00 | 0.00 | 40 | 1003.4 |
| 20260503171512 | 65 | 265 | 4.3 | 11.3 | 0.00 | 0.00 | 0.00 | 39 | 1003.6 |
| 20260503081504 | 48 | 195 | 0.0 | 1.7 | 0.00 | 0.00 | 0.00 | 73 | 1007.0 |
| 20260503071505 | 50 | 284 | 2.6 | 7.8 | 0.00 | 0.00 | 0.00 | 60 | 1007.9 |
| 20260503054506 | 48 | 224 | 0.0 | 1.7 | 0.00 | 0.00 | 0.00 | 63 | 1008.3 |
| 20260503053008 | 49 | 224 | 0.0 | 1.7 | 0.00 | 0.00 | 0.00 | 61 | 1008.4 |
| 20260503051504 | 49 | 224 | 0.0 | 1.7 | 0.00 | 0.00 | 0.00 | 56 | 1008.5 |
| 20260503050005 | 49 | 188 | 0.9 | 7.0 | 0.00 | 0.00 | 0.00 | 55 | 1008.6 |
| 20260503044509 | 48 | 187 | 0.0 | 4.3 | 0.00 | 0.00 | 0.00 | 55 | 1008.7 |
| 20260503043006 | 48 | 202 | 1.7 | 5.2 | 0.00 | 0.00 | 0.00 | 56 | 1008.8 |
| 20260503041511 | 49 | 231 | 0.9 | 2.6 | 0.00 | 0.00 | 0.00 | 53 | 1009.0 |
| 20260503040011 | 49 | 229 | 0.0 | 3.5 | 0.00 | 0.00 | 0.00 | 53 | 1009.0 |
| 20260503034507 | 48 | 186 | 1.7 | 3.5 | 0.00 | 0.00 | 0.00 | 56 | 1009.2 |
| 20260503033011 | 48 | 186 | 1.7 | 3.5 | 0.00 | 0.00 | 0.00 | 54 | 1009.3 |
| 20260503031513 | 48 | 195 | 0.9 | 2.6 | 0.00 | 0.00 | 0.00 | 60 | 1009.6 |
| 20260503030012 | 48 | 185 | 0.9 | 2.6 | 0.00 | 0.00 | 0.00 | 57 | 1009.7 |
| 20260503024514 | 50 | 184 | 0.0 | 1.7 | 0.00 | 0.00 | 0.00 | 58 | 1009.8 |
| 20260503023013 | 50 | 184 | 0.9 | 0.9 | 0.00 | 0.00 | 0.00 | 51 | 1010.0 |
| 20260503021512 | 51 | 187 | 0.0 | 1.7 | 0.00 | 0.00 | 0.00 | 49 | 1010.1 |
| 20260503020015 | 52 | 187 | 0.0 | 2.6 | 0.00 | 0.00 | 0.00 | 54 | 1010.1 |
| 20260503014514 | 53 | 198 | 0.9 | 1.7 | 0.00 | 0.00 | 0.00 | 46 | 1010.1 |
| 20260503013024 | 53 | 206 | 0.9 | 5.2 | 0.00 | 0.00 | 0.00 | 45 | 1010.2 |
| 20260503011515 | 54 | 244 | 0.9 | 2.6 | 0.00 | 0.00 | 0.00 | 44 | 1010.2 |
| 20260503010015 | 55 | 278 | 0.9 | 2.6 | 0.00 | 0.00 | 0.00 | 41 | 1010.2 |
| 20260503004516 | 55 | 277 | 1.7 | 5.2 | 0.00 | 0.00 | 0.00 | 40 | 1010.4 |
| 20260503003016 | 55 | 296 | 0.0 | 1.7 | 0.00 | 0.00 | 0.00 | 39 | 1010.6 |
| 20260503001513 | 56 | 328 | 0.9 | 2.6 | 0.00 | 0.00 | 0.00 | 37 | 1010.7 |
| 20260503000017 | 56 | 240 | 0.9 | 7.0 | 0.00 | 0.00 | 0.00 | 35 | 1010.7 |
| 20260502234528 | 57 | 287 | 0.9 | 7.8 | 0.00 | 0.00 | 0.00 | 34 | 1010.7 |
| 20260502233030 | 57 | 224 | 1.7 | 4.3 | 0.00 | 0.00 | 0.00 | 34 | 1010.9 |
| 20260502231513 | 57 | 301 | 3.5 | 7.8 | 0.00 | 0.00 | 0.00 | 34 | 1011.0 |
| 20260502230025 | 56 | 316 | 3.5 | 9.6 | 0.00 | 0.00 | 0.00 | 33 | 1011.0 |
| 20260502224503 | 57 | 314 | 4.3 | 10.4 | 0.00 | 0.00 | 0.00 | 31 | 1011.1 |
| 20260502223004 | 58 | 323 | 3.5 | 7.8 | 0.00 | 0.00 | 0.00 | 31 | 1011.3 |
| 20260502221515 | 60 | 344 | 3.5 | 10.4 | 0.00 | 0.00 | 0.00 | 28 | 1011.3 |
| 20260502220023 | 60 | 344 | 3.5 | 10.4 | 0.00 | 0.00 | 0.00 | 28 | 1011.3 |
| 20260502214523 | 59 | 306 | 2.6 | 8.7 | 0.00 | 0.00 | 0.00 | 30 | 1011.5 |
| 20260502213003 | 59 | 270 | 3.5 | 14.8 | 0.00 | 0.00 | 0.00 | 28 | 1011.7 |
| 20260502211512 | 58 | 250 | 3.5 | 7.0 | 0.00 | 0.00 | 0.00 | 28 | 1011.9 |
| 20260502210015 | 57 | 276 | 1.7 | 13.9 | 0.00 | 0.00 | 0.00 | 30 | 1012.1 |
| 20260502204520 | 59 | 336 | 3.5 | 9.6 | 0.00 | 0.00 | 0.00 | 30 | 1012.2 |
| 20260502203024 | 59 | 316 | 2.6 | 7.8 | 0.00 | 0.00 | 0.00 | 31 | 1012.1 |
| 20260502201508 | 59 | 281 | 3.5 | 10.4 | 0.00 | 0.00 | 0.00 | 28 | 1012.4 |
| 20260502200013 | 58 | 213 | 0.9 | 9.6 | 0.00 | 0.00 | 0.00 | 30 | 1012.6 |
| 20260502194528 | 58 | 359 | 5.2 | 11.3 | 0.00 | 0.00 | 0.00 | 26 | 1013.1 |
| 20260502193023 | 59 | 309 | 2.6 | 9.6 | 0.00 | 0.00 | 0.00 | 29 | 1013.2 |
| 20260502191529 | 57 | 294 | 3.5 | 7.0 | 0.00 | 0.00 | 0.00 | 29 | 1013.5 |
| 20260502190011 | 57 | 211 | 3.5 | 11.3 | 0.00 | 0.00 | 0.00 | 28 | 1013.8 |